This is the latest recevied weather packets stored in our database for station/object PA2JOK. If no packets are shown the sender has not sent any weather packets the latest 10 day(s).
| Time | Temp. | Humidity | Pressure | Rain* | Wind** | Luminosity | Snow |
|---|---|---|---|---|---|---|---|
| 1777496582 | 12.78° C | 37% | 1025.1 hPa | 0 mm | - | - | - |
| 1777495683 | 12.78° C | 37% | 1024.9 hPa | 0 mm | - | - | - |
| 1777494783 | 13.33° C | 36% | 1025 hPa | 0 mm | - | - | - |
| 1777493883 | 13.33° C | 36% | 1024.9 hPa | 0 mm | - | - | - |
| 1777492982 | 13.89° C | 35% | 1024.7 hPa | 0 mm | - | - | - |
| 1777492083 | 13.89° C | 35% | 1024.6 hPa | 0 mm | - | - | - |
| 1777491184 | 14.44° C | 34% | 1024.5 hPa | 0 mm | - | - | - |
| 1777490283 | 14.44° C | 33% | 1024.4 hPa | 0 mm | - | - | - |
| 1777489383 | 15° C | 32% | 1024.1 hPa | 0 mm | - | - | - |
| 1777488482 | 15.56° C | 31% | 1024 hPa | 0 mm | - | - | - |
| 1777487582 | 15.56° C | 31% | 1023.9 hPa | 0 mm | - | - | - |
| 1777486683 | 16.11° C | 29% | 1023.9 hPa | 0 mm | - | - | - |
| 1777485783 | 16.11° C | 29% | 1023.7 hPa | 0 mm | - | - | - |
| 1777484883 | 16.67° C | 28% | 1023.6 hPa | 0 mm | - | - | - |
| 1777483983 | 16.67° C | 28% | 1023.5 hPa | 0 mm | - | - | - |
| 1777483083 | 16.67° C | 27% | 1023.9 hPa | 0 mm | - | - | - |
| 1777482183 | 16.67° C | 27% | 1023.5 hPa | 0 mm | - | - | - |
| 1777481283 | 16.67° C | 25% | 1023.5 hPa | 0 mm | - | - | - |
| 1777480383 | 17.22° C | 25% | 1023.7 hPa | 0 mm | - | - | - |
| 1777479483 | 17.22° C | 25% | 1023.6 hPa | 0 mm | - | - | - |
| 1777478583 | 17.22° C | 25% | 1023.6 hPa | 0 mm | - | - | - |
| 1777477683 | 17.22° C | 24% | 1024.1 hPa | 0 mm | - | - | - |
| 1777476783 | 17.22° C | 24% | 1023.8 hPa | 0 mm | - | - | - |
| 1777475883 | 17.22° C | 25% | 1024 hPa | 0 mm | - | - | - |
| 1777474983 | 17.22° C | 25% | 1023.8 hPa | 0 mm | - | - | - |
* Rain latest hour (hover to see other rain measurements)
** Current wind speed in m/s (hover to see current wind gust speed)